TimeCST,TemperatureF,Dew PointF,Humidity,Sea Level PressureIn,VisibilityMPH,Wind Direction,Wind SpeedMPH,Gust SpeedMPH,PrecipitationIn,Events,Conditions,WindDirDegrees,DateUTC
12:45 AM,41.0,37.4,87,30.51,7.0,Calm,Calm,-,N/A,,Clear,0,2012-11-28 06:45:00
1:45 AM,41.0,37.4,87,30.52,5.0,West,3.5,-,N/A,,Clear,270,2012-11-28 07:45:00
2:45 AM,37.4,35.6,93,30.05,-9999.0,ENE,5.8,-,N/A,,Clear,70,2012-11-28 08:45:00
3:17 AM,33.8,30.2,87,30.50,0.2,Calm,Calm,-,N/A,Fog,Fog,0,2012-11-28 09:17:00
3:45 AM,-9999,-9999,N/A,30.49,0.2,Calm,Calm,-,N/A,Fog,Fog,0,2012-11-28 09:45:00
4:30 AM,33.8,30.2,87,30.50,0.2,Calm,Calm,-,N/A,Fog,Fog,0,2012-11-28 10:30:00
5:30 AM,33.8,32.0,93,30.49,0.2,Calm,Calm,-,N/A,Fog,Fog,0,2012-11-28 11:30:00
5:45 AM,33.8,32.0,93,30.13,0.2,Calm,Calm,-,N/A,Fog,Fog,0,2012-11-28 11:45:00
6:30 AM,35.6,33.8,93,30.51,0.1,Calm,Calm,-,N/A,Fog,Fog,0,2012-11-28 12:30:00
6:45 AM,35.6,33.8,93,30.52,0.1,ENE,3.5,-,N/A,Fog,Fog,70,2012-11-28 12:45:00
7:30 AM,37.4,35.6,93,30.53,0.1,SSE,5.8,-,N/A,Fog,Fog,150,2012-11-28 13:30:00
7:45 AM,37.4,35.6,93,30.54,0.1,ESE,5.8,-,N/A,Fog,Fog,120,2012-11-28 13:45:00
8:30 AM,39.2,37.4,93,30.54,0.2,SSE,4.6,-,N/A,Fog,Fog,150,2012-11-28 14:30:00
8:45 AM,41.0,39.2,93,30.06,1.5,Calm,Calm,-,N/A,,Clear,0,2012-11-28 14:45:00
9:45 AM,42.8,41.0,93,30.61,1.0,West,5.8,-,N/A,Fog,Fog,280,2012-11-28 15:45:00
10:30 AM,-9999,-9999,N/A,30.58,1.0,Calm,Calm,-,N/A,,Clear,0,2012-11-28 16:30:00
10:45 AM,55.4,41.0,58,30.57,2.0,Calm,Calm,-,N/A,,Clear,0,2012-11-28 16:45:00
11:32 AM,60.8,39.2,45,30.55,3.0,WSW,9.2,-,N/A,,Haze,240,2012-11-28 17:32:00
11:45 AM,60.8,33.8,36,30.12,3.0,SSW,3.5,-,N/A,,Haze,200,2012-11-28 17:45:00
12:45 PM,66.2,30.2,26,30.51,7.0,WNW,5.8,-,N/A,,Scattered Clouds,300,2012-11-28 18:45:00
1:45 PM,68.0,26.6,21,30.46,7.0,NE,8.1,-,N/A,,Scattered Clouds,40,2012-11-28 19:45:00
2:45 PM,68.0,24.8,20,29.97,7.0,WSW,8.1,-,N/A,,Scattered Clouds,250,2012-11-28 20:45:00
3:45 PM,69.8,19.4,15,30.42,7.0,West,4.6,-,N/A,,Scattered Clouds,270,2012-11-28 21:45:00
4:45 PM,64.4,35.6,34,30.42,7.0,East,10.4,-,N/A,,Mostly Cloudy,80,2012-11-28 22:45:00
5:45 PM,62.6,37.4,39,30.06,7.0,SE,8.1,-,N/A,,Mostly Cloudy,145,2012-11-28 23:45:00
6:45 PM,57.2,46.4,67,30.46,7.0,SSE,9.2,-,N/A,,Mostly Cloudy,150,2012-11-29 00:45:00
7:45 PM,55.4,41.0,58,30.47,7.0,South,6.9,-,N/A,,Mostly Cloudy,170,2012-11-29 01:45:00
8:45 PM,53.6,41.0,62,30.35,7.0,South,4.6,-,N/A,,Mostly Cloudy,180,2012-11-29 02:45:00
9:45 PM,51.8,41.0,67,30.51,7.0,ESE,5.8,-,N/A,,Scattered Clouds,120,2012-11-29 03:45:00
10:45 PM,48.2,39.2,71,30.52,7.0,SSE,3.5,-,N/A,,Scattered Clouds,150,2012-11-29 04:45:00
11:45 PM,46.4,37.4,71,30.19,7.0,East,5.8,-,N/A,,Scattered Clouds,80,2012-11-29 05:45:00